Location: Cambrin
(50.5097°N, 2.7408°E)
Time: 03:25:01
(UTC+00:00)

Daily predictions for brighter satellites

Satellite Brightness Start Highest point End
(mag) Time Altitude Azimuth Time Altitude Azimuth Time Altitude Azimuth
CENTAUR R/B 4.0 03:11:58 34° NE 03:11:58 34° NE 03:15:57 10° NE
Cosmos 2297 Rocket 4.4 03:41:59 17° NNE 03:42:53 17° NNE 03:46:33 10° ENE
NOSS 3-2 (C) 4.3 03:51:07 44° NE 03:51:07 44° NE 03:55:41 10° NE
Cosmos 2369 Rocket 3.5 03:51:56 34° NE 03:51:56 34° NE 03:55:07 10° NE
Cosmos 1943 Rocket 4.0 03:59:15 22° NNE 03:59:15 22° NNE 04:01:14 10° NNE
CZ-2C R/B 4.0 03:53:53 10° SE 03:58:44 35° ENE 04:00:26 28° NNE
Cosmos 2344 3.6 04:05:25 61° NNW 04:05:25 61° NNW 04:12:59 10° NE
Cosmos 2279 Rocket 4.3 04:06:26 46° NNE 04:08:08 64° ENE 04:14:17 10° SSE
USA 238 DEB 3.9 04:17:53 55° N 04:17:53 55° N 04:23:54 10° NE
USA 238 3.9 04:17:59 56° N 04:17:59 56° N 04:24:01 10° NE
Gblst 52 Del rocket 4.4 04:18:08 78° NE 04:18:08 78° NE 04:24:29 10° E
SJ 16-02 3.7 04:15:34 10° SSE 04:18:58 22° E 04:22:22 10° NE
Cosmos 2227 Rocket 4.2 04:17:14 16° N 04:19:35 20° NE 04:23:43 10° E
USA 215 3.4 04:13:18 10° E 04:19:45 64° NNE 04:20:33 59° NNW
Lacrosse 4 Rocket 4.0 04:23:22 14° NNE 04:23:44 14° NNE 04:26:11 10° ENE
Cosmos 2098 Rocket 4.2 04:28:03 48° NNE 04:28:03 48° NNE 04:32:21 10° NNE
ATLAS 5 CENTAUR R/B 2.7 04:41:25 32° SSE 04:42:11 35° ESE 04:46:08 10° NE
Meteor 2-13 Rocket 4.5 04:44:26 58° NW 04:44:26 58° NW 04:49:40 10° N
COSMOS 2487 4.1 04:47:51 31° ESE 04:47:51 31° ESE 04:50:02 10° SE
SKYMED 2 3.7 04:44:28 10° SSE 04:48:35 74° ESE 04:48:35 74° ESE
Cosmos 2278 Rocket 4.3 04:51:17 12° N 04:51:17 12° N 04:52:29 10° N
Cosmos 1354 Rocket 3.9 04:53:50 39° SSW 04:55:54 88° WNW 05:01:16 10° NNE
H-2A R/B 4.1 04:53:01 10° ESE 04:56:40 26° ENE 05:00:22 10° N
CENTAUR R/B 3.2 04:59:09 38° NW 05:00:06 40° NNW 05:07:16 10° NE
Cosmos 2180 Rocket 4.3 05:02:07 15° NNW 05:07:13 67° W 05:13:16 10° S
CZ-4C R/B 3.7 05:04:28 10° SSE 05:06:53 46° ESE 05:06:53 46° ESE
SL-19 R/B 4.3 05:02:54 10° S 05:08:20 55° WSW 05:09:39 45° WNW
FALCON 9 DEB 4.1 05:14:22 38° E 05:14:22 38° E 05:16:18 10° ESE
FALCON 9 DEB 4.0 05:16:00 40° E 05:16:00 40° E 05:18:00 10° E
FALCON 9 DEB 3.9 05:17:27 41° ENE 05:17:27 41° ENE 05:19:34 10° E
Cosmos 1538 Rocket 3.9 05:16:45 29° NNW 05:19:29 87° WSW 05:24:40 10° SSE
Cosmos 1656 Rocket 3.9 05:20:45 41° WNW 05:21:06 41° NW 05:26:19 10° NNE
Alouette 2 Rocket 3.3 05:20:03 35° N 05:21:28 73° ENE 05:25:05 10° SSE
Meteor 1-27 Rocket 3.6 05:16:41 14° NNW 05:21:38 74° W 05:27:24 10° S
MOS 1-B Rocket 4.2 05:16:10 10° S 05:21:47 42° W 05:23:07 37° WNW
ADEOS 4.0 05:21:05 10° NNE 05:26:18 65° ESE 05:31:29 10° S
Cosmos 2297 Rocket 2.7 05:23:49 17° NNW 05:28:12 58° NE 05:33:47 10° SE
NOSS 3-2 (A) 4.5 05:27:33 26° NW 05:29:30 31° NNW 05:35:46 10° NE
Cosmos 1607 3.8 05:26:35 28° NW 05:30:05 81° SW 05:36:14 10° SSE
Meteor 2-15 Rocket 4.4 05:24:49 10° NNW 05:30:50 63° W 05:36:48 10° S
FALCON 9 DEB 3.2 05:32:32 55° NNW 05:32:51 58° N 05:36:13 10° E
ATLAS 3B R/B 2.8 05:26:26 10° SSW 05:32:57 74° SE 05:39:51 10° NE
Cosmos 2369 Rocket 3.0 05:33:45 29° NW 05:34:01 29° NW 05:38:55 10° NNE
H-2A R/B 4.2 05:30:34 10° N 05:39:23 - SSW 05:32:11 23° N
Cosmos 1503 Rocket 4.4 05:32:42 33° W 05:34:21 41° WNW 05:39:27 10° NNE
Landsat 5 3.7 05:30:35 10° S 05:34:56 51° W 05:36:39 32° NW
Cosmos 1340 Rocket 2.7 05:32:09 10° SSW 05:36:08 85° W 05:40:12 10° NNE
COSMO-SKYMED 1 3.0 05:32:56 10° SSW 05:36:58 37° W 05:37:10 37° W
Cosmos 1777 Rocket 3.9 05:32:01 10° SSW 05:37:14 73° WNW 05:42:31 10° NNE
Cosmos 1680 Rocket 4.2 05:33:46 11° NNW 05:38:48 52° ENE 05:43:56 10° SE
CZ-4B R/B 3.4 05:36:07 10° SE 05:38:54 26° ENE 05:41:39 10° N
CZ-2C R/B 3.0 05:33:51 10° SSW 05:38:58 42° W 05:41:55 22° NW
Cosmos 158 Rocket 4.0 05:36:53 25° NW 05:39:52 62° WSW 05:45:03 10° S
SJ-12 4.2 05:36:26 10° N 05:40:22 43° WNW 05:44:18 10° SW
Cosmos 1943 Rocket 3.7 05:40:47 18° NNW 05:40:47 18° NNW 05:44:19 10° N
NOSS 3-2 (C) 4.3 05:38:34 26° NW 05:40:51 34° NNW 05:47:13 10° NE
CZ-4B R/B 3.4 05:39:14 10° NNE 05:42:45 52° E 05:46:17 10° S
Cosmos 1408 Rocket 3.7 05:38:41 10° SSW 05:42:48 44° WNW 05:46:58 10° N
FALCON 9 DEB 2.5 05:44:13 64° NW 05:44:33 76° NNE 05:47:26 10° ESE
Cosmos 2263 Rocket 4.2 05:40:47 10° N 05:44:52 20° NE 05:48:55 10° E
H-2A R/B 4.5 05:42:00 10° NE 05:45:52 23° E 05:49:45 10° SE
Meteor 1-25 Rocket 4.4 05:41:13 10° S 05:46:48 75° E 05:52:22 10° NNE
FAST Rocket 4.2 05:45:26 10° SSW 05:48:14 79° WNW 05:52:16 10° N
Meteor 1-31 Rocket 3.0 05:45:17 10° N 05:49:02 45° WNW 05:52:46 10° SW
Lacrosse 5 4.2 05:45:41 10° S 05:49:50 26° SE 05:54:00 10° ENE
USA 32 3.9 05:44:43 10° N 05:49:59 77° W 05:55:13 10° S
Envisat 3.3 05:45:55 10° N 05:50:43 43° WNW 05:55:31 10° SW
Cosmos 923 Rocket 4.1 05:49:24 12° NNW 05:54:29 85° ENE 05:59:50 10° SSE
Cosmos 1743 Rocket 3.5 05:50:42 10° SSW 05:55:01 60° WNW 05:59:20 10° N
Cosmos 1174 3.4 05:55:46 36° W 05:56:31 45° NW 05:59:44 10° NNE
CZ-2C R/B 3.0 05:51:39 10° NNE 05:56:37 85° ESE 06:01:48 10° SSW
SJ 16-02 1.5 05:53:01 10° SW 05:57:14 47° WNW 06:01:30 10° NNE
USA 215 3.4 05:56:19 10° SE 06:02:48 65° SW 06:07:54 17° WNW
Lacrosse 4 Rocket 2.3 05:59:39 13° NNW 06:03:28 50° NE 06:07:49 10° SE
SL-4 R/B 3.2 06:01:01 10° SW 06:04:18 36° SSE 06:07:48 10° E
Cosmos 2227 Rocket 2.4 05:59:04 11° NNW 06:04:39 75° ENE 06:10:17 10° SE
Nadezhda 4 Rocket 4.1 05:59:44 10° SSW 06:05:43 49° WNW 06:11:49 10° N
Cosmos 1666 Rocket 4.5 06:01:50 10° S 06:06:11 53° E 06:10:34 10° NNE
Cosmos 1939 Rocket 3.0 06:03:09 10° NNE 06:07:06 74° ESE 06:10:57 10° S
IRAS Rocket 4.4 06:03:56 10° S 06:09:16 52° WSW 06:14:39 10° NNW
Cosmos 2228 Rocket 3.3 06:05:35 10° NNW 06:09:56 48° W 06:14:18 10° SSW
Okean 1 3.2 06:07:20 10° NNW 06:11:16 63° W 06:15:10 10° S
Meteor 2-4 Rocket 4.0 06:07:01 10° N 06:12:59 75° ENE 06:18:48 10° SSE
FengYun 1-2 T 4.4 06:09:15 10° NNE 06:14:46 79° ESE 06:20:16 10° SSW
Meteor PRIRODA 3.6 06:13:15 10° N 06:16:49 54° WNW 06:20:22 10° SSW
Cosmos 1602 3.9 06:15:58 10° SSW 06:19:38 46° WNW 06:23:20 10° N
Meteor 1-18 Rocket 4.2 06:13:53 10° NNW 06:19:44 76° W 06:25:25 10° S
Sich 1 2.9 06:16:00 10° SSW 06:20:15 65° WNW 06:24:31 10° N
Cosmos 1428 Rocket 4.4 06:14:30 10° SSW 06:20:36 70° WNW 06:26:43 10° N
NOAA 11 4.3 06:15:25 10° N 06:20:45 54° WNW 06:26:05 10° SW
COSMOS 2487 4.1 06:20:59 15° W 06:21:09 16° W 06:23:13 10° SW
Cosmos 1500 Rocket 4.2 06:17:43 10° SW 06:21:46 33° WNW 06:25:51 10° N
Cosmos 2112 Rocket 4.0 06:17:13 10° NNW 06:22:36 87° WSW 06:27:52 10° SSE
BREEZE M DEB (TANK) 2.7 06:21:00 16° W 06:22:58 38° SSW 06:24:54 10° SE
Cosmos 990 Rocket 4.1 06:19:00 10° SSW 06:24:15 83° ESE 06:29:31 10° NNE
Meteor 1-20 Rocket 4.4 06:20:44 10° SSW 06:26:13 53° WNW 06:31:53 10° N
Meteor 2-21 4.4 06:20:07 10° SSW 06:26:17 75° WNW 06:32:27 10° N
Cosmos 1092 Rocket 4.1 06:20:30 10° SSW 06:26:40 57° WNW 06:32:56 10° N
ATLAS 5 CENTAUR R/B 2.0 06:22:59 10° WSW 06:26:42 39° NW 06:31:05 10° NE
Cosmos 1500 3.2 06:23:19 10° SSW 06:27:04 57° WNW 06:30:49 10° N
PSLV R/B 3.9 06:27:19 10° SSE 06:31:24 87° WSW 06:35:34 10° NNW
H-2A R/B 2.5 06:28:19 10° S 06:32:25 42° W 06:36:40 10° NNW
Cosmos 1707 Rocket 3.7 06:28:10 10° NNW 06:32:32 56° W 06:36:53 10° S
Cosmos 1805 Rocket 4.0 06:30:19 10° SW 06:34:24 39° WNW 06:38:31 10° N
Cosmos 1697 Rocket 3.9 06:30:32 10° S 06:35:52 48° ESE 06:41:16 10° NE
Cosmos 44 4.4 06:36:30 10° SSW 06:41:43 55° ESE 06:46:46 10° NE
Cosmos 1980 Rocket 4.5 06:37:41 10° SSE 06:42:34 30° ESE 06:47:26 10° NE
PSLV R/B 3.9 06:39:25 10° NNE 06:43:24 88° ESE 06:47:27 10° SSW
Cosmos 2219 3.3 06:38:15 10° NW 06:43:50 62° WSW 06:49:25 10° SSE
Cosmos 1862 Rocket 3.5 06:41:50 10° NNW 06:46:08 67° W 06:50:27 10° S
FALCON 9 DEB 4.1 06:45:47 10° W 06:48:15 26° SW 06:50:42 10° SSE
FALCON 9 DEB 4.0 06:47:29 10° W 06:50:01 28° SW 06:52:32 10° SSE
CZ-4B R/B 4.2 06:45:37 10° NNE 06:50:49 52° E 06:56:02 10° S
FALCON 9 DEB 3.7 06:49:02 10° W 06:51:44 36° SSW 06:54:25 10° SE
CENTAUR R/B 3.9 06:46:35 10° WNW 06:52:49 31° N 06:59:57 10° ENE
Cosmos 2266 Rocket 4.4 06:47:49 10° S 06:53:55 69° E 07:00:11 10° NNE
AQUARIUS 4.2 06:49:49 10° N 06:54:15 58° WNW 06:58:40 10° SSW
Cosmos 1666 2.8 06:52:03 10° SSW 06:55:43 49° WNW 06:59:23 10° N
